Location: Alafon
(8.4500°N, 4.2333°E)
Time: 09:55:38
(UTC+00:00)

A-11 Canister half - Pass Details

Date: 10 August 2021
Orbit: 1515 x 1685 km, 47.2° (Epoch: 21 September)

Event Time Altitude Azimuth Distance (km) Brightness Sun altitude
Rises 00:18:34 0° 295° (WNW) 4,932 - -64.9°
Reaches altitude 10° 00:22:31 10° 283° (WNW) 3,940 - -64.6°
Maximum altitude 00:30:16 25° 232° (SW) 2,889 - -63.9°
Drops below altitude 10° 00:37:57 10° 181° (S) 3,876 - -63.1°
Sets 00:41:51 0° 168° (SSE) 4,837 - -62.6°
